Location: NJAA Observatory
(40.6819°N, 74.8979°W)
Time: 02:44:15
(UTC-04:00)

Iridium 4 - Visible Passes

Search period start: 30 March 2017 00:00
Search period end: 09 April 2017 00:00
Orbit: 773 x 776 km, 86.4° (Epoch: 28 March)

Date Brightness Start Highest point End Pass type
(mag) Time Alt. Az. Time Alt. Az. Time Alt. Az.
30 Mar 8.0 23:14:43 10° N 23:15:42 16° N 23:15:42 16° N visible
31 Mar 7.9 22:40:36 10° NNE 22:41:32 15° NNE 22:41:32 15° NNE visible
01 Apr 8.4 00:21:34 10° NNW 00:21:57 12° NNW 00:21:57 12° NNW visible
01 Apr 7.9 22:06:59 10° NNE 22:07:23 11° NE 22:07:23 11° NE visible
01 Apr 8.0 23:46:35 10° NNW 23:47:48 17° NNW 23:47:48 17° NNW visible
02 Apr 7.7 23:11:59 10° N 23:13:40 21° N 23:13:40 21° N visible
03 Apr 7.4 22:37:42 10° N 22:39:31 21° NNE 22:39:31 21° NNE visible
04 Apr 8.3 00:19:21 10° NW 00:19:56 12° NW 00:19:56 12° NW visible
04 Apr 7.5 22:03:48 10° NNE 22:05:24 17° NE 22:05:24 17° NE visible
04 Apr 7.9 23:44:06 10° NNW 23:45:49 19° NNW 23:45:49 19° NNW visible
05 Apr 7.7 21:30:42 10° NE 21:31:17 11° NE 21:31:17 11° NE visible
05 Apr 7.3 23:09:20 10° N 23:11:42 27° NNW 23:11:42 27° NNW visible
06 Apr 6.9 22:34:53 10° N 22:37:36 31° NNE 22:37:36 31° NNE visible
07 Apr 8.3 00:17:26 10° NW 00:18:01 11° NW 00:18:01 11° NW visible
07 Apr 7.0 22:00:47 10° NNE 22:03:30 26° NE 22:03:30 26° NE visible
07 Apr 7.8 23:41:43 10° NNW 23:43:56 20° NW 23:43:56 20° NW visible
08 Apr 7.3 21:27:10 10° NNE 21:29:25 17° NE 21:29:25 17° NE visible
08 Apr 7.0 23:06:44 10° NNW 23:09:50 33° NW 23:09:50 33° NW visible
